Starlink 11343

operational
NORAD ID: 62017 Int'l Des: 2024-213 Owner: SPXS Country: US Constellation: starlink
LEOCIRCULAR

About Starlink 11343

Description loading...

Live Position

Loading 3D Globe...

Upcoming Passes

Altitude History

Altitude vs Time

uPlot chart will show altitude changes over time

Two-Line Element Set

1 62017U 24213K 25260.19071837 .00209548 00000-0 16858-2 0 9997
2 62017 53.1572 176.6656 0000839 97.2999 262.8114 15.69785677 47661
Epoch: Sep 17, 2025 • Age: 18 hours

Current Status

Altitude 359.0 km
Velocity 7.70 km/s
Sub-Earth Point 21.12°N, 152.89°W
Launch Date Nov 18, 2024
Age 0.8 years
Type internet

Technical Details

Classification Payload
Mass 960.00 kg
Dry Mass 910.00 kg
Total Mass 960.00 kg
Length 0.30 m
Diameter 4.10 m
Span 29.00 m
Shape Box + pan
Manufacturer SPXS
Bus Type Starlink V2MD
Phase Status In Orbit
Owner/State SPXS/US

Large Constellations

Loading constellations...